Back to catalog

COSMOS 2616

AliveMilitarySSO
NORAD 68827·PAYLOAD·🇷🇺 Russia

Launched Apr 23, 2026 from Plesetsk Cosmodrome

Loading…

Next Passes (next 24 hours)

TLE

FreshSource: Space-Track

Epoch: Sep 14, 2026, 19:41 UTC

1 68827U 26090B   26257.82036781  .00042340  24374-5  17051-3 0  9990
2 68827  96.6379 172.9110 0015346  63.3464 296.9378 15.86427750 22866

Track COSMOS 2616 in real time with AllMySat

Download on the App Store